Location: Proctor
(47.8934°N, 114.3048°W)
Time: 11:53:44
(UTC+00:00)

Tiros 1 - Visible Passes

Search period start: 19 June 2024 00:00
Search period end: 29 June 2024 00:00
Orbit: 624 x 657 km, 48.4° (Epoch: 19 June)

Date Brightness Start Highest point End Pass type
(mag) Time Alt. Az. Time Alt. Az. Time Alt. Az.
19 Jun 7.6 09:06:06 29° SSW 09:07:50 42° SSE 09:12:13 10° E visible
19 Jun 7.2 10:45:03 10° W 10:49:42 90° NNE 10:54:23 10° E visible
20 Jun 8.6 07:50:55 21° SE 07:50:55 21° SE 07:53:40 10° E visible
20 Jun 7.1 09:28:25 19° WSW 09:31:36 66° SSE 09:36:13 10° ENE visible
21 Jun 7.6 08:13:10 37° SSE 08:13:40 38° SSE 08:17:58 10° E visible
21 Jun 7.1 09:50:51 10° WSW 09:55:29 87° S 10:00:10 10° E visible
22 Jun 9.0 06:57:49 16° ESE 06:57:49 16° ESE 06:59:17 10° E visible
22 Jun 7.1 08:35:18 30° SW 08:37:24 61° SSE 08:41:59 10° ENE visible
22 Jun 7.2 10:14:48 10° W 10:19:27 83° N 10:24:07 10° E visible
23 Jun 7.7 07:19:49 34° SE 07:19:49 34° SE 07:23:42 10° E visible
23 Jun 7.0 08:57:17 14° WSW 09:01:16 84° SSE 09:05:55 10° E visible
23 Jun 7.2 10:38:46 10° W 10:43:24 87° N 10:48:05 10° E visible
24 Jun 9.1 06:04:08 13° ESE 06:04:08 13° ESE 06:04:52 10° E visible
24 Jun 7.1 07:41:34 35° SW 07:43:13 56° SSE 07:47:45 10° E visible
24 Jun 7.1 09:20:35 10° W 09:25:13 84° N 09:29:53 10° E visible
25 Jun 7.8 06:25:26 31° SE 06:25:26 31° SE 06:29:25 10° E visible
25 Jun 6.9 08:02:49 12° WSW 08:07:04 80° SSE 08:11:42 10° E visible
25 Jun 7.1 09:44:32 10° W 09:49:10 85° N 09:53:50 10° E visible
26 Jun 8.6 05:07:46 15° SE 05:07:46 15° SE 05:10:23 10° ESE visible
26 Jun 7.2 06:44:51 11° SW 06:49:02 52° SSE 06:53:30 10° E visible
26 Jun 7.1 08:26:22 10° W 08:30:59 85° N 08:35:38 10° E visible
26 Jun 7.0 10:08:28 10° W 10:13:06 80° SSW 10:17:45 10° ESE visible
27 Jun 7.9 05:27:18 10° SSW 05:31:12 28° SE 05:35:07 10° E visible
27 Jun 6.9 07:08:16 10° WSW 07:12:51 76° SSE 07:17:27 10° E visible
27 Jun 7.1 08:50:19 10° W 08:54:56 84° N 08:59:36 10° E visible
27 Jun 7.2 10:32:24 10° W 10:36:56 56° SSW 10:41:29 10° SE visible
28 Jun 7.3 05:50:27 10° SW 05:54:51 47° SSE 05:59:15 10° E visible
28 Jun 7.0 07:32:09 10° W 07:36:45 87° N 07:41:23 10° E visible
28 Jun 7.0 09:14:15 10° W 09:18:53 84° S 09:23:31 10° ESE visible
28 Jun 7.7 10:56:27 10° W 11:00:38 35° SSW 11:04:51 10° SSE visible
